Theta_e
279 279 279 279 279 279 279 279 279 279 280 280 280 280 281 281 282 282 282 283 284 284 284 284 285 285 285 285 285 285 286 286 286 287 287 287 287 287 288 289 291 292 294 296 298 300 301 301 301 302 303 304 305 307 308 309 310 311 312 313 313 313 312 312 311 311 310 310 310 310 311 312 313 313 313 313 314 315 316 316 316 316 316 316 315
278 278 278 278 278 278 279 279 279 279 279 279 279 280 280 280 281 281 281 282 282 283 283 284 284 284 284 284 284 285 285 285 286 286 287 287 287 287 287 287 287 288 289 291 293 295 297 299 300 300 301 302 303 304 305 307 308 309 310 311 312 313 313 313 313 313 312 312 311 311 311 311 311 312 312 313 313 314 315 315 315 315 315 315 315
278 277 278 278 278 278 278 278 278 278 278 279 279 279 279 279 280 280 280 281 281 281 282 282 283 283 284 284 284 284 284 285 285 285 286 286 286 287 287 287 287 287 287 287 288 290 292 295 297 298 299 300 301 302 302 304 305 306 308 309 310 311 312 312 312 313 313 313 312 312 312 312 312 312 312 313 314 314 313 314 314 314 315 315 314
277 277 277 277 277 277 277 277 277 278 278 278 278 278 278 278 279 279 279 279 280 280 280 281 281 282 282 283 283 284 284 284 284 284 285 285 286 286 286 286 286 286 286 286 286 287 288 289 291 293 296 298 299 300 300 301 303 304 305 307 308 309 310 311 312 312 312 313 313 313 313 313 314 314 314 315 315 315 314 313 313 314 314 314 314
276 276 276 276 277 277 277 277 277 277 277 277 278 278 278 278 278 278 278 278 279 279 279 280 280 280 281 281 282 282 282 283 283 284 284 284 285 285 285 286 286 286 286 286 286 286 286 287 287 288 290 292 295 297 299 300 301 302 304 305 306 307 309 309 311 311 312 312 313 313 313 313 314 314 314 315 315 315 314 313 312 312 312 313 313
276 276 276 276 276 276 276 276 276 277 277 277 277 277 277 277 277 277 278 278 278 278 278 279 279 279 280 280 280 281 281 281 282 282 283 283 284 284 284 285 285 286 286 286 286 286 286 286 286 286 287 288 289 292 294 297 299 301 302 303 304 306 307 308 309 310 311 312 312 312 313 313 313 313 314 314 314 314 314 313 312 312 312 311 311
275 275 275 275 276 276 276 276 276 276 276 276 276 276 276 277 277 277 277 277 277 277 278 278 278 278 279 279 279 279 280 280 280 281 281 282 282 283 284 284 285 285 286 286 286 286 285 285 286 286 286 286 287 288 290 292 296 298 300 301 303 304 305 307 307 308 309 310 310 311 311 311 312 312 313 312 312 312 312 312 312 312 311 311 311
275 275 275 275 275 275 275 275 275 276 276 276 276 276 276 276 276 276 276 277 277 277 277 277 277 278 278 278 278 279 279 279 279 279 280 280 281 282 282 283 284 284 285 285 285 285 285 285 285 285 285 286 286 286 287 288 291 294 297 299 301 302 303 305 305 306 307 307 308 308 309 309 310 310 311 311 311 311 312 311 311 311 311 310 309
274 275 275 275 275 275 275 275 275 275 275 275 275 276 276 276 276 276 276 276 276 276 277 277 277 277 277 278 278 278 278 278 278 278 279 279 279 280 281 281 282 283 284 285 285 285 285 285 285 285 285 285 285 285 286 286 287 289 293 296 298 300 301 303 303 304 305 305 305 306 306 307 308 309 309 310 310 310 310 309 309 309 308 307 306
274 274 274 274 274 274 274 275 275 275 275 275 275 275 275 275 275 275 275 276 276 276 276 276 276 277 277 277 277 277 278 278 277 277 277 277 278 278 279 280 280 281 282 283 284 284 284 285 285 285 285 285 285 285 286 286 286 286 289 292 296 298 299 301 302 302 303 303 304 304 303 304 306 307 308 308 308 308 308 307 307 307 306 305 304
273 273 273 273 273 274 274 274 274 274 274 274 275 275 275 275 275 275 275 275 275 275 276 276 276 276 276 277 277 277 277 277 277 277 277 277 277 277 278 278 279 279 280 281 282 283 284 284 284 284 285 285 285 286 286 286 286 286 286 289 292 295 297 299 301 301 301 302 302 302 302 302 303 304 305 305 306 306 306 306 305 305 305 305 305
273 273 273 273 273 273 273 273 273 274 274 274 274 274 274 274 274 274 275 275 275 275 275 275 275 276 276 276 276 277 277 277 277 277 277 277 277 276 277 277 278 278 279 279 280 281 282 283 283 284 284 284 284 285 286 286 286 286 286 287 288 291 293 296 299 300 300 300 301 301 301 301 302 302 303 303 304 304 304 304 304 304 304 304 304
272 272 272 272 272 272 272 273 273 273 273 273 273 273 273 274 274 274 274 274 274 274 275 275 275 275 275 276 276 276 277 276 276 276 276 276 276 276 277 277 277 277 278 278 278 279 280 281 282 283 283 283 283 283 284 285 286 286 286 286 287 287 289 292 295 297 298 299 300 300 301 300 300 301 302 301 301 301 302 302 303 303 303 303 303
272 272 272 271 271 271 272 272 272 272 272 272 272 272 273 273 273 273 274 274 274 274 274 274 274 275 275 275 275 276 276 276 276 276 276 276 276 276 276 277 277 277 277 277 277 278 278 279 280 281 282 282 282 282 282 283 284 285 286 287 287 287 287 288 291 294 296 297 298 299 299 299 299 300 300 300 300 300 300 301 301 301 301 301 301
271 271 271 271 271 271 271 271 271 271 271 272 272 272 272 272 272 273 273 273 273 274 274 274 274 274 274 274 275 275 276 275 275 275 275 275 275 275 276 276 276 277 277 277 277 277 277 278 278 279 280 280 281 281 281 281 282 283 285 286 286 287 287 287 287 290 292 294 296 297 298 298 299 300 300 300 299 299 299 299 299 299 299 299 299
271 270 270 270 270 270 270 270 270 270 271 271 271 271 271 271 272 272 272 273 273 273 273 273 274 274 274 274 274 275 275 275 275 275 275 274 274 275 275 275 276 276 277 277 277 277 277 277 277 278 278 279 279 280 280 280 280 281 283 284 285 286 286 286 287 287 289 290 292 294 296 297 298 299 299 299 299 299 299 298 298 298 298 298 298
270 269 269 269 269 268 269 269 269 269 270 270 270 271 271 271 271 271 272 272 272 272 273 273 273 273 273 274 274 274 275 274 274 274 274 273 273 273 274 274 275 275 276 276 276 277 277 277 277 277 277 278 278 278 279 279 279 280 281 282 283 285 286 286 286 286 287 288 289 291 293 295 297 298 298 299 299 298 298 298 298 298 298 298 298
269 268 268 268 268 268 268 268 268 269 269 269 270 270 270 270 270 270 271 271 271 272 272 272 273 273 273 273 273 273 274 274 274 274 273 273 272 272 273 273 273 274 274 275 275 276 276 276 276 276 277 277 277 277 277 278 278 279 279 280 281 282 284 285 285 286 286 286 288 289 290 292 295 297 298 298 298 298 298 299 299 299 298 298 298
268 267 267 267 267 267 267 267 267 268 268 268 268 268 269 269 269 269 270 270 270 271 271 272 272 272 272 272 272 272 273 273 273 273 273 272 272 272 272 272 272 273 273 273 274 274 275 275 275 275 276 276 276 276 276 277 277 278 278 279 279 280 282 283 284 285 285 285 286 288 289 290 292 294 296 297 297 297 298 298 298 298 298 298 298
267 267 267 266 266 266 266 266 267 267 267 267 267 267 268 268 268 269 269 269 270 270 270 271 271 272 271 271 271 271 271 272 272 272 272 272 271 271 271 271 271 272 271 271 272 272 273 273 274 274 274 274 275 275 276 276 277 277 278 278 278 279 280 281 282 284 284 284 284 285 287 288 290 291 294 295 296 296 296 296 297 298 298 298 297
266 266 266 266 265 265 265 266 266 266 266 266 266 267 267 267 267 268 268 268 269 269 269 270 270 271 271 271 271 270 270 271 271 271 271 271 271 270 270 270 270 270 270 270 270 270 271 272 272 273 273 273 274 275 275 276 276 277 278 278 279 279 279 279 281 283 284 284 284 284 284 286 288 289 291 294 295 294 294 294 295 296 296 297 296
266 266 265 265 265 265 265 265 265 265 265 265 266 266 266 266 266 267 267 267 268 268 269 269 269 270 270 270 270 270 269 269 270 270 270 270 270 270 269 269 269 268 268 269 269 269 270 270 271 272 272 273 273 274 275 275 276 276 277 278 279 279 280 279 280 282 284 285 285 284 283 284 286 288 289 291 293 293 293 293 293 293 293 294 295
265 265 265 265 264 264 265 264 264 265 265 265 265 265 265 265 266 266 266 266 267 267 267 268 268 269 270 269 269 269 269 268 268 268 269 269 269 269 269 269 268 268 267 268 268 269 270 270 271 272 272 272 273 273 274 275 275 276 277 277 277 279 280 280 280 281 283 285 285 284 284 284 284 286 288 289 291 293 292 291 291 292 292 292 293
265 265 265 265 264 264 264 264 264 264 264 264 264 264 265 265 265 265 266 266 266 266 267 267 267 268 268 269 268 268 268 268 268 267 267 268 268 268 268 268 268 268 268 268 268 269 270 270 271 271 271 271 272 272 274 274 274 275 277 278 278 278 279 279 279 280 282 284 284 284 284 284 284 285 287 288 290 291 291 290 290 290 290 290 291
265 265 265 264 264 264 264 264 264 264 263 264 264 264 264 264 265 265 265 265 265 265 266 266 266 266 267 267 267 267 267 267 267 267 267 267 267 268 268 268 268 268 268 269 269 269 270 270 270 270 271 271 271 272 273 273 273 274 275 277 278 279 279 278 278 279 280 282 284 284 285 285 284 284 286 288 289 290 290 290 289 289 289 289 289
265 265 264 264 264 264 264 264 264 264 263 263 263 263 264 264 264 264 264 264 264 265 265 265 265 265 265 265 266 266 266 266 266 266 267 267 267 268 268 268 268 268 269 269 269 270 270 270 270 270 271 271 272 272 272 272 273 273 274 275 276 278 278 278 278 278 279 281 282 283 284 284 284 283 284 286 287 288 289 289 289 289 289 289 288
265 265 264 264 264 264 264 264 264 263 263 263 263 263 263 263 263 264 264 264 264 264 264 264 264 265 265 264 264 264 264 264 264 264 266 266 266 266 267 267 267 267 268 268 269 269 269 269 270 270 271 271 271 271 272 273 273 273 274 274 275 276 277 277 277 278 278 279 280 282 283 283 284 283 283 284 286 287 287 288 288 288 288 288 287
265 265 264 264 264 264 264 264 263 263 263 263 263 263 263 263 263 263 263 263 263 264 264 264 264 264 263 262 262 262 262 262 262 263 264 265 265 265 265 266 266 267 267 268 269 269 269 269 270 270 271 271 271 271 272 273 273 273 274 274 274 275 275 276 277 277 278 278 279 280 282 283 284 284 283 283 285 286 286 286 287 287 287 286 286
265 264 264 264 264 264 263 263 263 263 263 263 263 263 263 263 263 263 263 263 263 263 263 263 263 262 261 261 261 261 261 261 262 263 264 264 265 265 265 266 266 267 268 268 269 269 269 270 270 271 271 271 271 271 272 273 273 273 274 274 274 274 275 275 276 277 277 278 278 280 281 282 283 284 283 283 284 285 285 285 285 285 285 284 284
265 264 264 264 263 263 263 263 263 263 263 263 263 263 263 263 263 263 263 263 263 262 263 262 262 261 260 260 261 261 261 262 262 263 264 264 265 265 266 266 267 267 268 269 269 269 270 270 270 271 271 270 270 271 272 272 273 273 273 273 274 274 275 275 276 276 277 278 278 279 280 281 283 284 283 283 284 285 284 284 284 284 283 283 283
265 264 264 263 263 263 263 263 263 263 263 263 263 263 264 264 264 263 262 263 263 263 263 262 262 262 261 261 261 262 262 263 263 264 264 264 265 265 266 266 267 267 268 269 269 269 270 270 270 271 270 270 270 271 271 272 273 273 273 273 274 274 274 275 276 276 277 277 278 279 280 281 282 283 283 283 284 284 284 283 283 282 282 281 282
264 264 264 263 263 263 263 263 263 263 263 263 263 263 263 264 264 264 264 263 263 263 263 263 263 262 262 262 262 262 263 263 263 264 264 264 265 265 266 266 267 268 268 269 269 270 270 269 269 269 269 269 269 270 271 271 272 273 273 273 274 274 275 276 276 277 277 278 278 279 279 280 281 281 282 283 283 283 283 282 282 281 280 280 280
264 264 263 263 263 263 263 263 263 262 262 262 263 262 262 262 263 264 264 264 264 264 263 263 263 262 263 263 263 263 263 263 263 263 264 264 264 265 265 266 267 268 268 269 269 269 269 269 269 268 268 269 270 270 271 272 272 273 273 274 274 274 275 276 276 277 278 278 278 279 279 280 280 281 282 283 283 282 282 282 281 280 279 279 279
264 263 263 263 263 263 263 263 262 262 262 262 262 262 262 262 262 262 263 264 264 265 264 264 263 263 263 263 263 263 263 263 263 263 263 264 264 264 265 266 267 267 268 268 268 268 268 268 268 268 269 269 270 271 272 272 273 274 274 274 274 275 275 276 277 277 278 278 278 278 279 280 280 281 282 282 282 282 281 280 280 279 278 278 278
263 263 263 263 263 263 263 262 262 262 262 262 261 261 262 262 262 262 262 262 262 263 264 264 264 263 262 262 263 263 263 263 263 263 263 263 264 264 265 266 267 268 268 269 268 268 268 268 268 268 268 269 270 271 272 272 273 273 274 274 274 275 276 276 277 277 277 278 278 278 278 279 280 280 281 282 281 281 280 279 279 278 277 277 277
263 263 262 262 262 262 262 262 262 261 261 261 261 261 261 261 261 261 261 261 261 262 262 263 263 263 262 262 262 263 263 263 263 263 263 263 263 264 265 266 267 267 268 268 268 268 268 268 268 268 268 269 270 270 271 272 272 272 273 273 274 275 276 276 276 277 277 277 277 277 278 278 278 279 280 280 279 279 279 278 277 277 276 276 276
263 263 262 262 262 262 262 261 261 261 261 261 261 261 261 261 261 261 261 261 261 261 262 262 262 263 263 262 262 262 263 263 262 262 262 262 263 263 264 265 265 266 266 266 267 268 268 268 268 268 269 269 270 271 271 272 272 272 272 273 273 274 275 275 275 276 276 276 276 277 277 277 278 278 278 278 278 278 277 277 276 276 275 275 275
262 262 262 262 262 261 261 261 261 261 260 260 260 260 260 260 260 260 261 261 261 261 261 262 262 262 262 262 262 262 262 262 262 262 262 262 263 263 263 264 264 264 265 265 265 266 266 267 267 268 268 269 270 270 271 271 272 272 272 272 272 273 273 273 274 274 275 275 275 276 276 277 277 277 277 277 277 277 276 276 275 275 274 274 275
262 262 262 262 261 261 261 261 260 260 260 260 259 259 259 260 260 260 260 260 261 261 261 261 261 261 261 261 261 262 262 262 262 262 262 262 262 262 262 263 263 263 264 264 264 265 265 265 266 266 267 267 268 269 270 270 270 271 271 272 272 271 272 272 273 273 274 274 274 275 275 276 276 276 276 275 275 275 275 275 274 274 274 274 274
262 262 261 261 261 261 261 260 260 260 260 259 259 259 259 259 259 259 259 260 260 260 260 261 261 261 261 261 261 261 261 261 261 261 261 261 262 262 262 262 262 263 263 263 264 264 264 264 265 265 265 266 266 267 268 268 269 269 270 271 271 270 270 271 271 272 273 273 273 274 274 275 275 275 274 274 274 274 274 273 273 273 274 274 274
262 261 261 261 261 260 260 260 260 259 259 259 259 259 259 259 259 259 259 259 259 260 260 260 260 260 260 260 260 260 260 260 260 261 261 261 261 261 261 261 262 262 262 263 263 263 263 263 264 264 264 264 265 265 266 267 267 268 269 269 269 269 269 270 270 271 271 272 272 273 273 273 273 273 273 273 273 273 273 273 273 273 273 274 274
261 261 261 260 260 260 260 260 260 259 259 259 259 259 259 259 259 259 259 259 259 259 259 260 260 260 260 260 260 260 260 260 260 260 261 261 261 261 261 261 261 261 262 262 262 262 263 263 263 263 263 264 264 264 265 266 266 267 267 268 268 268 268 269 269 270 270 271 271 272 272 272 272 272 272 272 272 272 272 272 272 273 273 273 274
261 261 260 260 260 260 260 260 259 259 259 259 259 259 259 259 259 259 259 259 259 259 259 259 260 260 260 260 260 260 260 261 261 261 261 261 261 261 261 261 261 261 261 261 262 262 262 262 262 263 263 263 263 264 264 265 265 266 266 266 267 267 267 268 269 269 270 270 270 271 271 271 271 271 271 271 271 271 272 272 272 272 273 273 273
261 260 260 260 260 260 260 259 259 259 259 259 259 259 259 259 259 259 258 259 259 259 259 259 259 259 260 260 260 260 260 261 261 261 261 261 261 261 261 261 261 261 261 261 262 262 262 262 262 262 263 263 263 264 264 264 264 265 265 265 266 266 267 267 268 268 269 269 270 270 270 270 271 271 271 271 271 271 272 272 272 272 273 273 273
261 260 260 260 260 260 260 259 259 259 259 259 259 259 259 259 259 258 258 259 259 259 259 259 259 259 259 259 260 260 260 260 260 260 260 260 261 261 261 261 261 261 261 261 261 262 262 262 262 262 262 263 264 264 264 264 264 264 265 265 265 265 266 267 267 268 268 268 269 269 270 270 270 270 270 271 271 271 272 272 272 272 273 273 273
261 260 260 260 260 260 260 260 259 259 259 259 259 259 259 259 259 258 259 259 258 259 259 259 259 259 259 259 259 259 260 260 260 260 260 260 260 261 261 261 261 261 261 261 261 261 261 261 261 262 262 263 263 264 264 264 264 264 265 265 265 265 266 266 267 267 267 268 268 269 269 270 270 270 270 270 271 271 272 272 272 272 272 272 273
261 260 260 260 260 260 260 260 260 260 259 259 259 259 259 259 259 259 259 259 259 259 259 258 258 259 258 258 259 259 259 260 260 260 260 260 260 261 261 261 261 261 261 261 261 261 261 261 262 262 262 263 263 264 264 264 264 264 264 265 265 265 266 266 267 267 267 268 268 268 269 270 270 270 270 270 270 271 271 271 271 271 272 272 272
261 260 260 260 260 260 260 260 260 260 260 259 259 259 259 259 259 259 259 259 259 259 259 258 258 258 258 258 258 259 259 259 259 260 260 260 260 260 261 261 261 261 261 261 261 261 261 261 262 262 262 263 263 263 263 264 264 264 265 265 265 266 266 266 267 267 267 268 268 268 269 269 270 270 270 270 270 270 271 271 271 271 271 271 270
261 261 260 260 260 260 260 260 260 260 260 259 259 259 259 259 259 259 259 259 259 259 259 258 258 258 258 258 258 258 259 259 259 260 260 260 260 260 261 261 261 261 261 261 261 261 261 262 262 262 262 262 263 263 263 264 264 264 265 265 265 266 266 266 266 266 267 267 268 268 268 269 270 270 269 269 269 269 270 270 270 270 270 270 270
261 261 261 260 260 260 260 260 260 260 260 259 259 259 259 259 259 259 259 259 259 259 259 258 258 258 258 258 258 258 258 259 259 259 260 260 260 260 260 261 261 261 261 261 261 261 262 262 262 262 262 262 262 263 263 264 264 264 265 265 265 265 266 266 266 266 266 267 267 267 268 268 269 269 268 268 268 269 269 269 269 269 269 269 269
261 261 261 260 260 260 260 260 260 260 260 259 259 259 259 259 259 259 259 259 259 259 259 258 258 258 258 258 258 258 258 258 259 259 259 260 260 260 260 261 261 261 261 261 261 261 262 262 262 262 262 262 262 263 263 264 264 264 264 265 265 265 265 266 266 266 266 266 266 267 267 267 268 268 268 268 268 268 268 268 269 269 269 269 269
Wind_Speed
21 21 21 22 22 22 22 22 22 22 21 21 21 20 20 19 19 19 18 18 18 18 18 18 18 18 17 17 17 17 16 16 15 14 13 13 12 11 11 10 10 9 9 9 9 10 10 10 9 9 9 10 10 12 12 13 14 15 17 20 22 23 24 24 26 27 26 25 24 22 21 21 21 19 18 17 16 16 18 21 24 25 25 24 22
23 23 23 23 23 23 23 23 23 23 23 22 22 21 21 21 20 20 19 19 19 19 19 19 19 19 19 18 18 18 17 17 17 17 16 15 15 14 13 13 12 12 11 11 10 10 10 11 11 11 10 10 10 11 12 12 14 14 15 17 19 21 22 22 24 26 27 27 26 25 24 23 23 23 23 22 21 20 20 22 24 26 27 27 27
24 25 25 25 25 24 25 24 24 24 24 24 23 23 23 22 22 22 21 21 21 20 20 20 20 20 20 20 20 19 19 18 18 18 18 17 17 16 16 15 15 14 14 14 13 12 12 11 12 13 13 13 12 12 13 13 13 13 13 15 16 18 19 21 23 25 27 28 29 29 28 27 27 26 26 27 27 25 24 24 25 27 29 30 30
25 26 26 26 26 26 26 26 25 25 25 25 25 24 24 24 23 23 22 22 22 22 22 21 21 21 21 21 21 21 20 20 20 20 19 19 19 18 18 17 17 16 16 16 15 15 14 14 13 14 14 14 14 15 15 15 14 14 13 14 15 16 18 19 21 23 26 27 29 30 29 29 29 28 28 29 29 28 28 27 28 29 30 31 31
26 27 27 27 28 28 28 27 27 27 26 26 26 25 25 25 25 24 24 24 23 23 23 23 23 23 22 22 22 22 22 22 22 21 21 21 21 20 20 19 18 18 17 17 17 16 16 15 15 16 15 15 14 14 14 14 14 14 14 14 14 15 16 17 20 23 25 26 27 28 29 29 29 29 29 29 29 30 30 30 30 31 32 33 33
26 27 27 28 29 29 29 29 29 29 28 28 27 26 26 26 26 26 25 25 25 24 24 24 24 24 24 24 23 23 23 24 24 23 23 23 23 22 22 21 20 20 19 18 18 17 17 17 17 17 17 16 16 15 14 13 13 13 14 15 15 15 14 15 18 21 23 25 27 28 29 29 29 29 28 29 31 31 31 31 32 32 34 34 35
26 27 28 28 29 30 30 30 30 30 30 30 29 28 27 27 26 26 26 27 26 26 26 25 25 25 25 25 25 25 24 24 25 25 25 25 24 24 24 24 23 22 21 20 19 19 18 18 18 18 17 17 17 17 17 16 14 13 14 14 14 15 15 14 16 18 21 22 24 26 27 28 29 28 28 28 29 30 31 31 32 33 34 35 36
27 27 28 29 29 30 30 31 31 31 31 31 30 30 29 28 28 27 26 27 27 27 28 27 27 26 26 26 26 26 26 26 26 26 26 26 26 26 26 26 26 25 24 23 22 21 20 20 19 19 19 18 18 18 18 18 17 16 15 15 14 14 14 14 14 16 18 19 19 20 22 23 25 26 27 28 29 30 30 31 32 33 34 36 37
27 27 28 29 30 30 31 31 31 32 32 32 31 31 31 30 29 28 27 27 27 27 27 28 28 28 27 27 26 26 26 26 26 27 27 27 28 28 28 28 28 28 27 26 25 24 23 22 22 21 20 20 19 19 18 18 19 18 17 18 17 15 14 13 13 14 16 17 17 17 18 20 22 23 24 26 27 28 28 29 30 31 32 34 35
27 28 28 29 29 30 31 31 31 32 32 32 32 32 32 31 31 30 29 28 28 27 27 27 28 28 29 28 28 27 26 25 26 26 26 27 28 29 30 30 30 30 30 29 29 27 26 25 24 23 22 22 21 20 19 19 18 18 18 19 19 18 16 14 13 13 14 16 17 17 18 18 19 20 21 22 23 24 25 25 27 28 30 31 31
29 29 29 29 30 30 30 31 31 32 32 32 32 32 32 32 32 31 31 30 29 29 28 28 27 27 28 28 29 28 27 25 26 26 25 25 27 29 31 32 32 31 31 31 31 31 30 28 27 26 25 24 24 23 22 21 20 19 18 18 19 19 19 17 16 13 13 14 16 17 18 19 18 18 18 20 21 23 23 24 26 27 28 29 30
31 31 30 30 30 31 31 31 31 31 31 32 32 32 32 32 32 32 32 31 30 30 29 29 29 28 28 28 28 28 28 27 27 27 27 27 27 28 31 32 33 33 32 32 33 33 32 31 30 28 27 26 26 26 25 24 23 21 21 20 19 19 19 19 18 17 15 15 15 17 18 19 19 19 19 18 19 21 23 24 26 26 27 28 29
33 33 32 32 31 31 31 31 31 31 31 31 30 30 31 31 31 31 32 32 31 31 30 30 29 29 29 29 29 28 28 28 28 29 29 29 29 30 31 33 33 34 34 33 34 34 34 34 33 32 30 28 28 27 27 27 27 25 23 22 21 21 21 20 19 19 18 17 18 18 17 17 19 19 19 19 19 21 22 23 23 24 25 26 27
34 34 33 33 32 32 31 31 31 31 30 30 30 29 29 29 29 30 30 31 31 32 31 31 30 30 30 30 31 30 29 29 30 30 31 32 31 32 33 34 34 35 35 34 34 34 34 35 35 35 33 31 30 29 28 28 29 29 28 26 24 23 23 23 22 21 20 20 21 21 18 16 18 19 19 20 21 21 21 20 20 21 22 23 24
35 35 34 33 32 31 31 31 30 30 29 29 29 28 28 28 28 28 29 29 30 30 31 31 31 31 31 31 32 32 31 31 31 32 32 33 33 34 36 36 36 36 36 36 35 35 34 34 35 35 35 34 32 30 30 29 30 31 31 30 28 26 25 25 24 24 23 22 23 23 21 19 19 19 19 20 21 21 20 19 18 19 20 21 22
36 35 34 32 31 30 30 30 29 28 28 28 28 28 27 27 27 27 27 27 28 28 29 29 30 31 31 32 33 34 33 32 33 33 33 33 34 35 37 38 38 38 38 38 37 36 36 35 35 35 35 34 33 31 30 30 31 32 33 33 32 31 28 26 26 26 26 25 24 24 24 23 21 20 19 19 20 20 21 20 19 20 21 21 22
35 34 32 31 30 28 28 28 28 27 27 26 26 26 26 26 26 27 27 27 27 27 28 28 29 30 31 32 33 34 34 33 33 33 33 33 33 35 36 37 38 39 39 39 38 38 37 36 35 35 35 34 33 31 29 29 30 32 33 34 35 35 33 30 27 27 27 27 26 26 25 24 22 20 19 19 19 20 22 23 22 22 23 23 24
34 32 30 29 28 27 27 26 26 26 26 25 25 25 25 25 26 26 27 27 27 27 28 28 28 29 30 31 32 33 34 33 32 33 32 32 32 33 35 36 37 38 38 38 38 38 38 38 36 36 36 34 32 30 28 28 29 31 31 33 35 36 36 33 30 28 27 28 28 28 27 25 23 21 20 19 19 21 23 23 22 22 24 25 25
31 30 28 27 26 25 25 25 25 25 25 25 25 25 24 24 25 25 26 27 28 28 28 28 29 29 29 30 31 32 33 33 31 31 31 30 29 30 32 34 35 36 36 36 37 37 38 38 37 36 36 35 32 29 27 25 26 29 29 30 34 37 36 34 33 32 29 28 29 30 29 26 24 23 21 19 19 20 22 22 21 23 25 25 25
28 27 26 25 24 24 24 24 24 23 24 24 24 23 24 24 25 25 25 26 27 28 28 29 30 30 30 30 31 31 32 32 31 30 29 28 27 27 29 31 33 33 33 33 35 36 36 36 37 36 35 33 31 29 28 27 26 28 29 30 33 36 34 32 33 33 32 31 30 30 30 29 26 24 22 20 19 20 21 22 23 24 25 26 26
26 25 24 23 23 23 22 22 23 22 23 24 24 23 23 24 25 25 26 27 27 28 28 29 30 31 30 30 31 30 30 31 31 30 28 27 25 24 25 28 28 29 31 32 33 34 35 36 37 36 33 32 32 32 31 30 28 28 29 30 32 33 32 31 32 33 33 33 33 31 31 30 28 26 23 22 21 21 21 23 24 25 26 27 28
25 24 23 22 22 22 22 21 22 22 22 23 24 23 22 23 24 25 26 27 28 29 29 30 31 32 31 31 31 30 30 30 30 29 27 26 24 22 22 23 24 25 29 32 33 34 35 36 38 38 36 35 35 32 31 30 30 30 32 32 30 29 29 30 31 31 32 35 35 33 32 30 29 27 24 23 24 23 23 23 25 26 27 28 29
24 22 22 21 21 21 21 21 21 21 21 22 23 23 23 23 24 24 25 27 28 29 29 30 31 32 32 32 32 31 31 30 29 28 26 24 23 21 20 21 21 22 26 30 32 33 35 36 38 39 37 35 33 31 29 29 30 31 32 32 32 30 29 30 31 31 31 33 35 35 33 31 29 27 26 25 26 26 25 25 26 27 29 29 30
22 21 20 20 20 21 21 20 20 20 20 21 22 22 23 23 23 23 24 26 28 29 29 30 31 33 34 34 33 32 31 30 28 25 23 21 21 20 20 21 20 20 24 28 30 31 33 34 35 35 34 33 32 31 31 32 32 30 29 29 29 30 31 32 33 32 32 32 34 35 35 33 29 28 27 27 28 28 27 27 27 29 31 31 32
21 20 19 20 20 20 20 19 19 19 19 21 22 22 22 23 23 23 23 24 26 28 29 30 31 32 34 34 34 33 31 30 28 25 22 20 20 20 20 20 20 21 24 27 29 30 31 31 31 32 33 33 33 33 34 35 34 32 30 28 27 27 29 31 32 32 32 33 33 35 38 37 33 29 28 29 30 30 30 29 28 30 32 33 34
20 19 19 19 19 20 20 19 18 18 18 19 20 20 22 23 23 22 22 24 25 27 28 29 31 31 32 33 33 33 32 32 31 29 25 23 22 22 22 23 24 25 27 30 31 31 31 31 31 32 32 33 33 35 37 39 38 36 34 32 30 29 30 30 31 32 32 34 35 36 38 38 35 32 30 30 31 31 31 31 30 30 32 34 35
20 18 18 19 19 19 19 19 18 18 18 18 19 19 20 21 22 22 22 23 25 26 27 28 29 30 32 32 34 35 36 35 35 34 31 30 30 31 31 32 32 32 32 33 34 34 34 33 33 33 34 35 36 37 39 39 39 37 35 32 32 33 33 33 34 34 34 36 37 38 37 37 36 34 32 32 32 31 31 32 32 31 32 33 35
19 18 18 18 19 19 19 19 19 18 18 18 18 18 18 19 20 20 20 22 24 26 27 28 28 28 31 33 36 37 37 35 35 35 34 34 34 35 35 35 35 35 35 35 36 37 37 37 37 37 37 38 38 38 38 37 37 36 35 33 33 34 35 36 37 37 36 36 37 37 37 36 36 35 32 32 32 32 32 32 32 32 32 32 34
18 17 17 18 18 18 18 18 19 19 18 18 18 17 18 19 20 20 18 19 22 24 26 27 27 28 30 32 33 34 35 34 33 33 32 32 32 33 34 35 36 37 36 35 36 38 39 40 40 40 39 39 38 38 38 37 37 36 34 32 32 32 32 33 35 36 36 35 35 36 36 37 39 37 32 30 32 33 33 32 32 32 32 32 33
18 17 17 17 18 18 18 18 18 18 19 19 19 17 15 16 19 21 20 19 19 20 22 22 23 23 26 28 27 28 31 33 32 30 30 30 31 33 34 35 35 35 34 33 34 37 39 41 41 41 40 39 38 38 39 38 38 37 36 34 33 31 30 30 31 32 33 33 33 34 36 38 40 36 30 30 33 34 33 33 33 33 33 33 33
18 17 17 17 18 18 18 18 17 18 18 19 20 21 18 15 13 15 19 20 20 19 19 18 18 18 20 24 25 27 28 29 28 28 29 30 31 33 33 33 32 33 33 34 35 37 38 39 40 39 37 36 36 37 38 37 37 37 36 35 33 32 31 31 29 29 30 31 31 32 34 37 38 34 30 31 34 35 34 34 34 34 34 34 33
19 17 17 17 18 18 18 18 18 18 18 18 19 21 23 21 17 13 14 16 18 19 18 18 17 17 17 20 23 25 26 25 26 27 28 29 30 30 30 30 31 32 33 34 35 36 35 34 34 34 32 32 32 33 34 35 36 36 34 33 33 33 32 31 29 27 29 30 31 33 34 37 38 36 33 33 35 35 35 34 35 36 35 34 33
20 18 18 18 17 17 18 18 18 18 18 19 20 20 22 24 24 21 17 15 14 15 16 17 19 19 19 19 20 23 24 24 24 25 26 27 27 27 28 29 30 31 32 32 32 33 32 31 31 30 28 27 28 29 30 31 32 31 30 30 32 34 34 32 30 29 29 30 31 34 36 37 39 40 39 38 37 36 35 35 35 36 35 34 34
19 19 18 18 18 17 17 17 18 18 18 19 20 21 21 22 24 25 25 22 19 15 14 16 18 21 21 20 20 21 23 23 23 24 25 25 25 25 27 29 28 28 28 28 28 29 28 28 28 27 25 25 26 26 27 29 29 28 28 30 33 35 35 33 31 30 29 29 31 34 37 39 41 42 42 41 38 36 35 35 35 36 36 35 34
19 18 18 18 18 18 17 17 18 18 18 19 19 20 21 21 22 23 25 26 25 22 19 18 18 20 22 22 21 22 23 22 22 23 24 24 25 25 26 27 27 26 25 25 25 26 25 25 25 25 24 23 23 24 26 28 29 29 29 30 31 31 30 29 29 28 28 29 30 32 35 39 41 42 42 40 38 36 35 34 35 35 35 35 35
19 18 17 17 18 18 17 17 17 18 18 18 19 19 20 20 21 22 23 23 25 25 24 22 21 20 21 21 22 23 23 22 22 23 24 24 24 25 26 25 25 25 25 25 25 24 24 23 23 23 23 22 21 21 21 22 22 22 22 23 24 24 25 25 24 24 25 27 29 31 33 36 37 38 37 36 34 33 33 33 33 34 34 34 35
18 17 17 17 17 17 17 16 17 17 17 17 18 18 19 19 20 21 22 22 23 24 24 24 24 23 22 22 22 24 24 22 22 22 23 24 24 24 25 25 25 25 25 24 24 24 23 23 23 23 23 22 21 20 19 18 18 18 18 18 19 20 20 20 20 20 21 23 26 28 30 31 32 32 31 31 31 31 31 31 32 33 34 34 35
17 17 16 16 16 16 16 15 15 15 16 16 17 18 18 19 19 20 21 22 23 23 24 24 24 25 25 24 24 25 25 24 23 23 24 24 24 24 25 25 24 24 24 24 24 23 23 22 22 22 22 21 21 20 19 17 17 16 15 16 16 16 17 18 18 18 19 20 22 24 25 26 27 27 28 29 29 30 30 31 33 34 35 36 35
16 16 15 15 15 14 14 14 14 14 15 15 16 17 18 19 19 20 21 21 22 23 24 24 24 24 25 25 25 26 27 26 26 26 26 26 25 25 25 25 25 25 25 24 24 23 22 21 21 21 21 20 20 20 19 18 16 16 15 15 15 15 16 16 17 17 18 19 20 21 21 22 23 25 26 27 27 28 29 31 33 35 36 36 34
15 15 14 13 13 12 12 13 13 14 14 15 16 17 18 19 19 20 21 22 22 23 23 24 23 23 24 24 24 26 27 27 27 26 26 26 25 25 25 25 26 26 25 25 24 24 23 22 21 20 20 20 19 19 18 17 16 15 15 14 14 14 15 15 15 16 17 18 19 20 20 20 22 23 24 25 26 26 28 31 33 35 35 34 32
14 13 12 12 11 11 11 12 12 13 13 14 15 16 17 19 20 21 21 22 23 23 23 23 23 22 22 22 22 23 24 25 25 24 24 24 24 24 24 24 25 25 26 26 26 25 25 24 23 22 21 20 19 18 17 16 15 15 14 14 14 14 15 15 14 15 16 17 18 18 19 20 21 22 23 23 24 25 28 31 33 33 33 31 30
12 12 11 11 10 10 10 10 11 12 13 14 15 17 18 19 20 21 22 22 23 23 23 23 22 22 21 21 21 21 22 23 23 23 23 23 23 23 23 23 23 23 24 25 26 26 26 26 25 24 22 21 20 18 16 14 13 13 13 13 13 13 14 14 14 15 15 16 17 17 18 18 19 20 20 21 23 25 29 31 32 31 30 29 27
12 11 10 9 9 9 9 10 11 12 13 15 16 17 19 20 21 22 22 22 23 23 23 23 23 22 21 21 20 20 20 21 21 22 21 21 21 21 22 22 21 21 22 23 24 24 25 25 25 24 23 23 21 19 16 14 12 11 11 11 11 12 12 13 13 14 15 15 15 16 16 17 17 18 19 21 23 27 30 31 30 29 28 26 24
11 10 9 9 9 9 9 10 12 13 14 16 17 19 20 22 22 23 23 23 23 23 23 23 23 23 22 21 21 20 20 20 21 21 21 20 20 20 21 21 20 20 20 21 21 22 22 23 23 23 22 22 21 19 16 13 12 11 10 10 10 10 11 11 12 12 13 13 14 14 14 15 16 17 19 22 25 28 29 29 28 27 25 24 22
10 10 9 9 9 10 10 11 13 15 16 18 19 20 21 23 24 24 25 25 24 23 23 22 22 22 22 21 21 21 20 20 20 20 20 20 19 19 20 20 20 20 19 19 20 20 20 20 21 21 21 21 20 19 16 13 12 11 10 9 9 8 8 9 9 9 9 10 11 11 12 13 15 18 21 24 26 27 27 27 26 25 24 22 21
11 10 10 10 10 11 12 13 15 17 18 20 22 23 23 24 25 25 26 26 25 24 23 22 22 22 21 21 20 20 20 19 19 19 19 19 19 19 19 19 18 18 18 18 18 18 19 19 19 19 19 19 19 18 17 15 13 11 10 9 8 7 5 4 4 4 5 6 8 10 12 15 18 21 23 25 25 25 25 24 23 22 21 20 19
12 12 12 12 13 14 15 16 17 19 20 22 24 25 26 26 27 26 26 26 25 25 23 22 22 21 21 20 20 20 19 19 18 18 18 18 18 18 18 18 17 17 17 17 17 17 17 17 17 17 17 16 16 16 16 15 14 12 12 11 10 8 6 4 3 3 4 6 9 13 16 19 22 23 23 24 23 22 22 22 21 19 18 18 16
14 14 15 15 16 17 17 18 20 22 23 24 26 27 28 28 28 28 27 26 25 24 23 22 21 21 20 19 19 19 18 18 18 17 17 17 17 16 17 17 17 16 15 15 15 15 15 15 15 15 15 14 14 13 13 13 12 11 11 12 13 12 12 11 10 10 10 12 14 16 17 19 21 22 21 21 21 20 20 19 19 18 17 16 16
17 17 17 18 19 20 21 22 23 25 25 27 28 29 29 29 29 28 27 26 25 24 23 22 21 21 20 19 19 18 17 17 17 16 16 16 16 15 16 16 16 16 15 14 14 14 14 13 14 13 13 13 12 12 11 11 10 9 10 11 13 13 13 13 13 13 13 13 14 16 17 17 19 20 20 19 18 18 17 17 17 16 15 15 14
19 20 20 21 22 23 24 25 26 27 28 29 30 31 31 30 30 28 27 25 24 23 22 21 21 20 19 19 19 18 17 16 16 16 16 15 15 14 14 14 14 15 14 14 13 13 12 12 12 12 11 11 11 10 9 9 9 9 10 11 12 12 12 13 14 15 15 14 14 15 15 16 17 18 18 18 17 16 16 16 15 14 14 13 12
22 22 23 24 24 25 26 27 28 29 29 30 31 31 31 31 29 27 26 25 24 23 22 21 20 20 19 18 18 18 17 16 16 15 15 15 15 14 13 13 13 13 13 13 12 12 11 11 11 10 10 9 9 9 8 7 8 9 10 10 11 11 11 12 13 14 15 15 14 14 14 15 15 16 16 16 15 15 14 14 14 13 12 12 11
Wind_Direction
350 349 349 349 348 347 347 347 346 344 344 343 343 342 341 340 340 340 340 337 335 336 336 336 337 339 340 341 342 342 342 343 343 344 346 349 353 354 353 353 348 339 333 321 309 302 294 290 296 300 292 284 278 271 266 262 259 255 253 252 251 251 251 250 255 263 270 275 278 280 283 284 284 283 281 277 267 255 243 235 231 228 229 232 234
345 345 344 344 343 342 342 342 341 339 338 338 337 337 336 336 335 334 335 333 332 332 330 330 330 331 332 333 334 336 335 335 335 335 335 336 339 342 343 345 346 344 342 339 332 322 309 298 297 301 300 296 292 287 279 271 266 262 259 257 254 252 251 250 251 255 259 262 265 267 269 271 272 273 275 274 267 259 250 243 238 235 236 236 237
340 340 340 339 339 338 338 338 336 335 334 333 333 333 332 332 331 330 330 329 330 329 327 327 326 325 325 325 326 327 328 329 329 328 328 328 329 331 333 335 336 337 338 339 340 337 329 318 307 303 300 296 296 296 292 285 278 272 267 263 261 257 254 253 253 254 255 256 257 259 260 261 261 262 264 266 264 257 250 246 242 239 239 240 241
336 336 336 335 335 335 334 334 333 332 331 330 329 329 328 328 327 326 326 326 325 325 325 325 323 322 321 320 320 321 321 322 323 323 322 322 321 322 323 325 326 327 329 330 332 334 334 332 326 320 312 303 297 294 292 290 286 283 277 270 265 261 257 255 255 256 257 257 257 258 259 259 259 259 259 260 259 255 250 245 242 240 239 240 242
333 333 333 332 332 331 331 331 330 330 329 328 327 326 325 324 324 323 322 322 322 322 321 321 321 321 320 319 319 319 319 318 317 317 317 316 316 315 315 315 316 317 319 321 323 324 325 327 328 329 329 325 317 305 296 291 287 286 285 279 273 266 259 256 256 257 259 260 260 259 259 259 259 259 259 259 256 253 249 245 242 240 239 239 240
331 331 330 330 329 329 329 328 327 327 327 326 326 325 324 322 321 320 319 319 319 319 319 318 318 318 318 319 319 318 319 318 315 314 313 311 310 309 308 308 307 308 309 311 313 315 316 318 319 321 324 327 328 324 315 304 294 290 289 286 280 274 266 260 258 255 256 259 261 261 260 259 259 259 258 258 256 252 249 246 244 242 240 240 239
328 328 328 328 327 327 326 326 325 325 324 324 323 323 322 321 319 318 316 316 315 315 315 316 316 316 315 315 316 317 317 317 315 313 311 309 307 304 303 303 301 301 301 302 303 306 307 309 310 312 315 317 321 323 322 318 309 300 297 294 288 282 275 266 263 260 256 255 256 256 257 257 256 256 256 258 257 254 250 247 246 244 243 241 239
325 325 325 325 325 324 324 323 323 322 322 321 321 320 319 319 318 317 315 314 313 313 312 313 313 313 313 313 313 314 315 315 314 313 310 309 307 304 302 300 299 297 296 296 297 298 299 300 302 304 306 308 311 313 316 318 316 308 303 301 294 288 283 275 270 268 263 259 255 254 255 255 255 255 255 255 255 255 255 252 249 248 246 244 240
324 323 322 322 322 321 321 320 319 319 318 318 317 317 316 316 316 315 315 313 312 311 311 311 311 310 311 312 312 312 313 315 315 314 313 312 309 306 303 301 299 297 294 293 292 292 293 293 294 296 298 300 303 304 305 308 311 310 307 304 300 294 288 282 279 278 273 268 264 260 259 258 257 257 256 256 257 259 260 257 255 252 250 247 244
324 323 321 321 319 318 318 317 316 315 315 315 314 314 314 314 314 314 313 313 312 311 310 309 309 309 309 310 311 311 313 314 315 315 315 314 311 308 305 301 300 298 296 293 290 289 290 289 289 290 291 293 294 295 295 296 300 303 303 303 301 297 292 287 283 282 281 277 272 269 267 265 263 263 264 265 265 265 263 260 258 254 250 247 245
323 322 320 319 318 317 316 314 313 312 312 311 311 311 312 311 312 312 312 312 312 311 310 309 308 308 307 308 309 310 312 314 314 313 314 314 312 310 306 303 300 299 298 296 293 290 288 287 287 287 287 288 289 288 289 289 290 291 292 293 294 293 292 289 284 280 279 280 279 277 274 271 269 269 269 269 270 269 267 264 259 255 252 249 247
321 320 319 318 317 315 314 312 311 310 309 308 308 308 309 309 310 310 310 311 311 311 311 310 309 308 307 307 307 308 310 312 313 313 312 312 312 310 307 304 302 300 299 298 296 293 291 288 286 286 286 287 287 286 285 285 284 284 284 284 285 286 286 284 281 279 277 278 279 278 279 279 276 271 268 269 273 273 270 266 263 261 258 255 252
319 318 317 317 316 314 312 310 309 308 307 307 306 306 307 307 308 308 308 309 310 310 310 310 310 309 308 307 307 306 308 310 311 312 312 312 312 309 306 304 303 302 301 299 298 296 294 292 288 286 286 287 286 286 285 284 282 280 278 277 278 279 280 279 277 275 275 276 276 275 279 284 283 279 274 272 272 271 269 267 266 265 262 260 257
316 315 315 315 314 313 311 309 307 306 305 305 305 305 305 305 306 307 307 307 307 308 309 309 309 310 309 308 307 306 307 309 309 310 310 311 311 309 306 303 302 301 301 300 299 298 296 296 292 289 287 286 286 287 287 286 283 281 278 275 273 272 274 275 274 272 270 269 271 272 275 279 282 283 279 273 268 267 267 267 269 271 270 266 261
313 313 313 313 312 310 309 306 305 304 304 304 304 305 305 305 306 306 305 306 306 307 308 308 308 309 309 309 307 306 307 309 310 310 310 310 309 307 305 303 302 300 299 299 299 298 297 296 294 292 290 288 288 289 290 289 287 283 279 276 274 271 269 270 271 271 269 267 268 269 269 270 273 276 276 272 269 268 266 264 263 265 266 263 258
309 310 310 310 310 309 306 304 304 304 304 304 304 305 305 306 307 306 305 305 306 306 307 307 307 308 308 309 307 305 306 308 310 310 310 310 309 307 305 303 302 301 300 299 299 299 299 298 296 294 292 290 289 289 290 290 289 286 282 279 276 273 269 268 268 269 269 269 269 268 266 263 263 267 271 271 270 268 265 260 255 252 252 252 250
306 307 308 308 308 307 305 304 304 305 305 305 305 305 306 308 308 308 307 307 307 307 307 307 308 308 308 308 307 305 305 307 309 309 310 311 310 308 305 304 303 301 300 300 300 299 299 299 298 296 294 292 292 291 291 290 288 286 285 282 279 275 271 270 269 267 266 267 268 267 265 260 257 258 263 267 269 265 260 258 255 250 247 246 245
304 305 306 306 306 306 306 306 306 306 306 306 306 306 308 309 310 310 310 310 310 310 309 308 308 309 308 308 308 306 305 306 307 306 307 309 308 307 305 304 302 302 301 301 300 299 299 298 298 298 296 295 296 295 293 292 289 286 286 285 282 278 274 274 273 269 266 265 264 263 264 261 255 252 254 260 267 265 261 260 260 255 251 249 249
303 304 305 306 307 306 306 306 306 306 307 307 307 308 310 310 310 311 311 311 311 312 312 310 309 309 309 309 309 308 307 305 306 304 304 305 306 305 304 303 302 302 302 302 301 300 299 299 298 298 298 299 300 298 295 292 289 286 284 283 281 278 278 280 279 274 270 267 263 261 262 261 257 252 250 253 260 265 265 264 260 256 254 253 251
304 304 305 307 307 306 306 306 306 307 308 307 307 310 311 311 310 311 312 312 312 313 314 313 311 310 311 311 310 311 310 308 307 305 303 302 303 303 302 301 301 302 303 303 302 300 299 297 297 298 300 300 299 296 293 290 287 285 284 281 278 276 279 283 283 280 276 273 268 265 262 259 256 253 250 251 255 260 262 260 256 254 253 251 249
304 304 306 307 307 306 306 306 307 308 308 307 308 310 312 312 312 313 314 314 315 314 314 314 312 311 313 313 313 314 314 312 309 308 306 304 302 301 299 298 300 303 303 300 299 297 296 295 295 295 296 294 293 294 295 292 287 283 281 280 278 278 279 278 279 281 281 278 274 271 266 260 257 255 250 250 254 257 258 255 253 251 249 247 247
303 305 307 307 306 306 307 308 308 308 308 307 307 310 313 313 314 316 316 316 315 315 315 315 314 313 314 315 316 317 317 315 313 312 310 307 304 302 299 297 301 306 303 298 296 296 295 295 294 293 293 293 294 296 297 295 290 283 278 276 277 280 280 277 274 274 278 279 278 275 270 264 261 258 254 251 253 256 258 255 250 247 247 247 248
303 306 307 306 306 307 308 309 309 308 309 308 308 311 314 314 315 317 317 317 316 315 316 317 316 315 316 317 318 318 318 317 316 316 315 311 306 302 298 296 300 304 302 298 297 296 296 296 296 295 296 298 298 297 297 295 290 286 284 282 279 278 279 277 271 266 268 274 276 275 273 270 265 261 258 254 252 255 258 257 251 246 244 244 247
305 307 307 306 307 307 308 310 309 309 309 309 309 312 313 313 315 318 318 318 316 315 317 320 319 318 317 317 318 319 318 317 318 319 318 314 307 303 301 300 302 304 302 298 296 297 297 297 298 299 300 299 296 293 291 288 283 282 285 287 285 282 278 275 271 266 263 265 270 272 272 270 267 263 260 257 254 254 257 257 253 249 245 243 245
306 307 307 307 307 307 308 309 309 309 310 310 310 313 313 313 315 319 319 318 316 317 319 321 319 319 319 318 318 318 319 319 319 320 320 317 312 308 305 301 300 301 300 295 294 295 297 298 300 300 297 294 292 290 289 286 283 280 276 273 275 277 276 275 274 269 263 263 269 272 269 267 267 265 261 260 258 256 256 257 255 251 248 245 244
307 308 308 307 307 307 307 308 308 309 309 309 311 313 314 315 317 319 320 318 317 319 320 320 320 320 320 320 320 320 322 323 324 324 325 325 322 318 314 309 305 304 301 297 296 297 298 300 300 298 295 292 291 289 287 285 284 281 275 269 267 268 270 272 273 270 264 262 267 270 269 268 269 267 263 262 263 259 256 257 256 253 250 248 245
307 309 308 307 307 306 307 307 308 310 309 309 311 313 315 316 317 320 322 319 317 320 321 320 321 322 323 325 326 325 327 328 327 327 329 331 329 325 321 317 312 310 307 305 305 306 305 304 300 296 292 290 288 286 284 283 283 282 279 273 268 267 267 268 269 269 266 262 261 264 267 268 268 267 263 262 264 264 259 256 256 254 251 249 247
307 308 307 306 306 306 308 309 309 311 311 312 313 314 315 315 315 319 323 321 320 322 323 323 326 329 328 329 328 326 326 325 323 324 327 327 323 320 316 312 309 307 307 308 310 309 307 303 298 295 293 292 291 291 290 288 286 284 279 273 270 268 268 267 267 268 267 264 260 260 262 263 264 266 264 261 262 265 261 255 253 252 250 249 246
306 307 305 305 306 306 307 309 309 311 313 313 313 316 318 318 318 320 323 323 323 324 324 326 331 331 327 324 323 321 318 316 315 318 319 316 312 310 307 305 305 305 307 309 308 305 301 298 297 296 296 294 293 292 291 290 290 288 284 278 275 274 274 272 271 269 267 265 260 256 257 258 259 260 260 259 260 262 260 255 251 249 246 244 243
305 306 304 304 304 305 306 307 308 311 313 313 314 315 316 319 321 322 323 323 323 322 323 326 328 324 318 314 313 310 307 307 310 312 311 307 304 302 301 302 304 305 306 305 302 298 297 297 297 296 296 294 292 290 289 289 288 288 286 282 279 280 281 278 274 271 271 269 263 257 255 256 255 254 255 257 259 259 257 253 248 244 242 240 238
303 304 303 302 302 304 305 306 308 310 312 314 316 317 318 319 320 321 321 321 320 320 322 323 322 316 311 308 306 303 301 303 307 307 306 304 302 301 303 305 305 304 302 301 299 298 299 299 298 297 297 296 293 289 287 287 287 287 287 285 283 284 285 282 277 274 273 271 268 263 257 253 252 253 256 257 257 257 255 250 243 239 237 236 235
301 302 301 299 300 303 304 306 308 310 312 314 316 319 321 321 322 322 319 318 319 320 322 322 319 316 313 309 307 306 307 309 309 308 307 306 306 307 307 305 303 302 301 301 301 301 301 301 299 299 301 302 299 294 290 288 288 286 284 282 281 282 284 283 281 277 274 270 268 266 261 254 251 251 251 252 252 252 250 246 240 235 232 229 228
299 299 298 297 299 301 302 304 307 309 313 315 317 320 322 322 323 324 323 322 321 321 322 324 323 321 319 317 313 311 311 312 313 313 313 313 315 314 310 306 305 306 306 305 303 302 302 301 300 299 299 298 297 296 294 293 293 291 286 281 280 281 282 283 282 278 273 269 268 268 264 257 253 250 247 248 249 249 246 242 237 232 228 224 221
296 296 296 296 297 298 300 302 306 309 312 316 318 319 321 320 321 323 325 327 328 326 325 327 327 325 325 325 321 316 315 317 320 321 322 323 323 319 314 310 309 308 306 305 303 301 300 301 300 299 298 294 290 288 287 286 288 287 283 279 278 279 281 282 282 279 274 271 271 268 262 258 255 250 246 244 244 243 241 238 234 228 224 221 217
294 295 295 294 295 296 299 302 305 309 312 315 316 317 319 320 321 323 324 325 327 328 329 330 329 328 328 328 326 323 323 325 328 329 330 330 329 325 319 315 312 309 308 309 306 303 304 305 304 303 302 301 296 291 285 281 280 279 278 279 281 283 285 285 284 282 279 275 273 268 260 254 250 245 241 240 241 240 237 234 229 224 219 216 214
293 293 291 290 291 294 299 302 305 308 311 314 316 317 320 322 322 322 322 322 324 326 328 330 330 329 329 331 331 328 327 330 334 336 336 336 335 332 329 326 323 322 321 319 314 309 307 307 306 304 303 303 302 299 294 290 289 288 288 290 290 290 288 286 284 282 279 275 270 265 256 247 241 238 236 237 238 238 235 231 225 219 214 210 208
290 289 287 287 289 293 297 301 303 306 310 314 317 319 321 322 321 321 322 323 323 324 326 329 330 330 331 333 334 331 330 334 338 340 339 339 339 339 339 338 337 336 334 332 326 318 312 309 307 306 305 304 302 300 297 296 297 298 299 298 296 292 289 287 284 281 278 273 267 260 252 245 242 241 240 239 237 234 231 226 220 214 208 203 201
288 287 286 286 288 292 295 297 301 306 311 315 318 319 320 321 322 323 323 324 324 325 326 329 331 332 333 335 335 333 332 335 340 341 342 343 343 343 343 343 343 344 344 342 337 329 322 317 313 309 307 306 302 298 296 295 296 298 299 299 299 297 293 290 286 280 274 268 262 256 250 247 246 244 243 240 237 232 226 220 214 208 201 196 195
287 286 286 286 288 290 293 298 302 307 311 315 317 318 319 322 324 324 324 324 325 327 328 329 332 333 333 334 335 335 334 337 341 342 343 344 346 346 344 343 344 346 348 348 345 340 334 329 324 319 315 312 307 302 299 298 297 296 294 293 295 295 292 288 285 279 272 265 258 254 250 249 248 245 241 237 234 229 221 213 207 201 195 191 190
286 286 286 286 289 291 295 299 303 308 312 316 318 319 322 324 325 325 326 326 327 327 328 330 331 333 333 334 336 336 335 336 339 340 340 342 344 345 345 344 344 346 348 349 349 349 346 342 337 332 327 322 318 313 308 304 300 296 293 292 293 293 290 285 281 276 271 265 259 255 253 251 248 243 237 231 227 223 216 206 199 195 191 189 186
284 285 285 286 288 292 296 299 303 309 314 318 320 322 324 325 326 326 326 327 327 327 327 328 330 331 332 332 334 334 333 332 334 337 339 340 342 344 344 344 344 345 347 349 350 352 352 351 348 344 340 335 329 323 316 310 304 299 294 292 292 293 291 285 279 274 270 265 260 257 254 250 244 238 231 224 217 212 206 198 192 188 186 184 181
282 283 283 284 288 292 296 299 305 311 315 319 322 325 325 325 325 325 325 326 326 326 325 326 327 329 330 330 331 331 330 329 331 334 337 339 341 342 343 343 343 345 347 348 349 351 353 354 353 350 348 345 340 333 325 318 312 306 301 297 296 296 293 288 281 275 269 263 260 256 251 246 239 231 223 216 208 201 194 189 184 181 180 179 177
279 279 280 281 286 292 297 302 307 313 317 320 323 325 325 325 324 323 322 322 322 323 324 324 325 326 328 329 329 329 329 329 329 333 336 338 340 342 342 341 343 346 347 346 348 350 351 353 354 354 353 351 346 341 335 330 324 318 312 306 302 297 293 288 283 277 271 265 259 254 247 240 231 220 211 204 197 190 184 180 178 176 176 175 174
273 273 275 279 284 291 298 304 309 314 317 320 322 323 323 323 322 321 320 319 318 319 320 322 324 324 325 327 328 328 329 329 330 332 335 337 339 341 341 340 342 345 346 346 348 350 351 352 354 357 358 358 354 348 344 341 339 335 329 322 314 305 296 288 281 275 270 264 257 249 239 228 217 206 196 190 186 181 176 175 174 173 171 170 168
266 267 271 277 283 291 298 303 307 311 315 317 319 320 320 319 319 318 318 316 315 315 316 318 321 322 323 325 326 327 328 329 330 330 333 336 339 340 340 339 341 344 346 346 348 350 351 353 356 359 3 4 2 359 357 357 357 356 351 343 331 318 305 293 281 271 264 257 248 238 223 206 194 185 179 176 175 174 172 170 170 169 167 165 165
262 264 270 276 281 289 296 301 304 308 311 314 315 317 317 317 316 315 315 314 313 312 312 313 316 319 320 322 323 325 327 328 329 329 330 333 337 339 339 339 341 343 344 346 348 350 352 354 357 1 4 7 7 8 11 14 16 17 18 15 5 352 334 312 285 260 245 232 217 201 185 174 169 168 167 166 167 169 167 165 164 165 164 163 164
260 264 270 276 281 288 294 298 301 305 308 310 312 313 314 314 314 313 312 311 310 308 308 309 310 313 317 319 320 322 325 327 328 328 328 330 334 336 337 338 339 341 343 345 347 350 352 355 357 1 5 7 9 13 19 24 29 35 43 47 46 43 45 52 77 109 133 152 161 162 160 158 158 159 160 160 161 163 162 159 158 160 159 159 161
260 264 269 275 281 286 292 297 299 302 305 307 308 309 310 311 311 311 310 308 307 305 304 304 305 308 312 316 317 319 321 324 326 326 326 327 330 333 335 336 337 339 342 345 347 349 352 355 357 1 7 10 12 17 24 30 35 44 57 67 71 72 75 80 88 100 115 130 140 146 150 154 155 155 155 156 156 157 157 155 155 156 158 158 158
262 266 271 276 280 286 292 295 297 300 303 305 305 307 308 308 308 308 307 306 304 303 302 301 301 303 307 311 314 315 316 319 322 323 324 325 327 329 332 334 335 337 340 343 347 350 353 355 357 2 7 12 15 19 27 35 42 50 62 73 80 84 89 95 99 104 112 124 134 140 146 151 151 149 148 149 150 151 153 153 152 154 157 157 157
266 269 273 277 282 286 291 294 296 299 302 303 303 305 306 306 306 306 305 303 301 300 299 297 297 299 302 306 310 312 312 315 318 321 323 324 324 326 329 331 332 335 338 341 344 349 352 355 357 1 6 13 18 21 27 40 53 61 68 75 81 88 96 105 110 113 116 122 130 136 141 145 145 144 144 145 146 147 150 151 151 152 154 154 153
269 272 276 280 284 288 291 293 296 298 300 301 302 303 304 304 305 304 303 301 299 298 296 295 294 295 297 300 304 308 310 311 313 316 320 321 322 323 325 327 329 332 335 338 341 346 350 352 356 359 3 11 19 23 28 43 60 68 73 79 86 92 98 106 113 117 120 123 127 132 135 139 141 142 142 143 144 146 148 149 150 150 151 152 150